| time (UTC) | temp C | wind direction | speed KPH | gust KPH | rain 1hr cm | rain 24hr cm | rain mn cm | humidity % | barometer mb |
| 20260504050541 | 25 | 236 | 6.4 | 16.1 | 0.00 | 2.29 | 2.29 | 97 | 1017.1 |
| 20260504045539 | 25 | 249 | 1.6 | 11.3 | 0.00 | 2.29 | 2.29 | 98 | 1017.2 |
| 20260504045041 | 25 | 254 | 3.2 | 11.3 | 0.00 | 2.29 | 2.29 | 98 | 1017.1 |
| 20260504044546 | 25 | 178 | 3.2 | 11.3 | 0.00 | 2.29 | 2.29 | 98 | 1017.2 |
| 20260504044037 | 25 | 215 | 4.8 | 12.9 | 0.00 | 2.29 | 2.29 | 98 | 1017.0 |
| 20260504043541 | 25 | 230 | 3.2 | 12.9 | 0.00 | 2.29 | 2.29 | 98 | 1017.1 |
| 20260504043052 | 25 | 271 | 6.4 | 12.9 | 0.00 | 2.29 | 2.29 | 98 | 1017.3 |
| 20260504042541 | 25 | 252 | 4.8 | 14.5 | 0.00 | 2.29 | 2.29 | 98 | 1017.2 |
| 20260504042041 | 25 | 257 | 4.8 | 14.5 | 0.00 | 2.29 | 2.29 | 98 | 1017.1 |
| 20260504041553 | 25 | 240 | 6.4 | 14.5 | 0.00 | 2.29 | 2.29 | 98 | 1017.0 |
| 20260504041040 | 25 | 234 | 6.4 | 14.5 | 0.00 | 2.29 | 2.29 | 98 | 1017.0 |
| 20260504040544 | 25 | 251 | 6.4 | 14.5 | 0.00 | 2.29 | 2.29 | 98 | 1017.0 |
| 20260504040111 | 25 | 240 | 4.8 | 14.5 | 0.00 | 2.29 | 2.29 | 98 | 1017.0 |
| 20260504035540 | 25 | 252 | 6.4 | 14.5 | 0.00 | 2.29 | 2.29 | 98 | 1017.1 |
| 20260504035041 | 25 | 250 | 3.2 | 9.7 | 0.00 | 2.29 | 2.29 | 98 | 1017.1 |
| 20260504034548 | 25 | 294 | 1.6 | 8.0 | 0.03 | 2.29 | 2.29 | 98 | 1017.2 |
| 20260504034041 | 25 | 0 | 3.2 | 14.5 | 0.03 | 2.29 | 2.29 | 98 | 1017.0 |
| 20260504033541 | 25 | 275 | 4.8 | 14.5 | 0.03 | 2.29 | 2.29 | 98 | 1016.9 |
| 20260504033046 | 25 | 300 | 6.4 | 12.9 | 0.03 | 2.29 | 2.29 | 98 | 1017.1 |
| 20260504032541 | 25 | 265 | 6.4 | 12.9 | 0.03 | 2.29 | 2.29 | 98 | 1017.0 |
| 20260504032041 | 25 | 258 | 3.2 | 9.7 | 0.03 | 2.29 | 2.29 | 98 | 1016.9 |
| 20260504031545 | 25 | 0 | 1.6 | 11.3 | 0.05 | 2.29 | 2.29 | 98 | 1016.9 |
| 20260504031040 | 25 | 259 | 4.8 | 11.3 | 0.05 | 2.29 | 2.29 | 98 | 1016.8 |
| 20260504030540 | 25 | 240 | 1.6 | 11.3 | 0.08 | 2.29 | 2.29 | 98 | 1016.8 |
| 20260504030045 | 25 | 217 | 1.6 | 12.9 | 0.08 | 2.29 | 2.29 | 97 | 1016.8 |
| 20260504025542 | 25 | 278 | 6.4 | 12.9 | 0.08 | 2.29 | 2.29 | 97 | 1016.6 |
| 20260504025045 | 25 | 238 | 3.2 | 9.7 | 0.08 | 2.29 | 2.29 | 97 | 1016.6 |
| 20260504024547 | 25 | 242 | 3.2 | 8.0 | 0.05 | 2.26 | 2.26 | 97 | 1016.6 |
| 20260504024040 | 25 | 196 | 1.6 | 12.9 | 0.05 | 2.26 | 2.26 | 97 | 1016.6 |
| 20260504023539 | 25 | 202 | 3.2 | 12.9 | 0.05 | 2.26 | 2.26 | 97 | 1016.6 |
| 20260504023059 | 26 | 302 | 4.8 | 12.9 | 0.05 | 2.26 | 2.26 | 97 | 1016.6 |
| 20260504022542 | 26 | 171 | 1.6 | 6.4 | 0.05 | 2.26 | 2.26 | 97 | 1016.5 |
| 20260504022040 | 26 | 0 | 0.0 | 12.9 | 0.05 | 2.26 | 2.26 | 97 | 1016.5 |
| 20260504021550 | 26 | 317 | 3.2 | 12.9 | 0.03 | 2.24 | 2.24 | 97 | 1016.4 |
| 20260504021040 | 26 | 223 | 6.4 | 16.1 | 0.03 | 2.24 | 2.24 | 97 | 1016.3 |
| 20260504020540 | 26 | 259 | 8.0 | 20.9 | 0.00 | 2.21 | 2.21 | 97 | 1016.3 |
| 20260504020048 | 26 | 284 | 11.3 | 20.9 | 0.00 | 2.21 | 2.21 | 97 | 1016.1 |
| 20260504015540 | 26 | 294 | 11.3 | 20.9 | 0.00 | 2.21 | 2.21 | 97 | 1016.1 |
| 20260504015042 | 26 | 246 | 8.0 | 17.7 | 0.00 | 2.21 | 2.21 | 97 | 1016.1 |
| 20260504014600 | 26 | 306 | 9.7 | 16.1 | 0.00 | 2.21 | 2.21 | 97 | 1015.9 |
| 20260504014040 | 26 | 251 | 6.4 | 14.5 | 0.00 | 2.21 | 2.21 | 97 | 1016.0 |
| 20260504013540 | 26 | 279 | 3.2 | 14.5 | 0.00 | 2.21 | 2.21 | 97 | 1016.0 |
| 20260504013049 | 26 | 295 | 8.0 | 14.5 | 0.00 | 2.21 | 2.21 | 97 | 1015.9 |
| 20260504012541 | 26 | 231 | 6.4 | 14.5 | 0.00 | 2.21 | 2.21 | 97 | 1015.9 |
| 20260504012040 | 26 | 273 | 9.7 | 14.5 | 0.00 | 2.21 | 2.21 | 97 | 1015.9 |
| 20260504011552 | 26 | 274 | 4.8 | 14.5 | 0.00 | 2.21 | 2.21 | 97 | 1015.8 |
| 20260504011041 | 26 | 290 | 6.4 | 14.5 | 0.00 | 2.21 | 2.21 | 97 | 1015.8 |
| 20260504010540 | 26 | 242 | 8.0 | 14.5 | 0.00 | 2.21 | 2.21 | 97 | 1015.9 |
| 20260504010054 | 26 | 237 | 6.4 | 12.9 | 0.00 | 2.21 | 2.21 | 97 | 1015.8 |
| 20260504005542 | 26 | 253 | 3.2 | 12.9 | 0.00 | 2.21 | 2.21 | 96 | 1015.7 |
| 20260504005040 | 26 | 123 | 4.8 | 12.9 | 0.00 | 2.21 | 2.21 | 97 | 1015.8 |
| 20260504004552 | 26 | 172 | 4.8 | 16.1 | 0.00 | 2.21 | 2.21 | 96 | 1015.6 |
| 20260504004038 | 26 | 190 | 6.4 | 16.1 | 0.00 | 2.21 | 2.21 | 96 | 1015.5 |
| 20260504003538 | 26 | 257 | 3.2 | 12.9 | 0.00 | 2.21 | 2.21 | 96 | 1015.5 |
| 20260504003102 | 26 | 200 | 4.8 | 12.9 | 0.00 | 2.21 | 2.21 | 96 | 1015.3 |
| 20260504002540 | 26 | 250 | 4.8 | 12.9 | 0.00 | 2.21 | 2.21 | 96 | 1015.2 |
| 20260504002039 | 26 | 238 | 3.2 | 16.1 | 0.00 | 2.21 | 2.21 | 96 | 1015.1 |
| 20260504001604 | 26 | 244 | 8.0 | 16.1 | 0.00 | 2.21 | 2.21 | 96 | 1015.1 |
| 20260504001038 | 26 | 254 | 8.0 | 16.1 | 0.00 | 2.21 | 2.21 | 96 | 1014.9 |
| 20260504000538 | 26 | 263 | 6.4 | 16.1 | 0.00 | 2.21 | 2.21 | 96 | 1014.7 |
| 20260504000108 | 26 | 263 | 8.0 | 16.1 | 0.00 | 2.21 | 2.21 | 96 | 1014.7 |
| 20260503235538 | 26 | 257 | 11.3 | 16.1 | 0.00 | 2.21 | 2.21 | 95 | 1014.7 |
| 20260503235040 | 26 | 250 | 6.4 | 12.9 | 0.00 | 2.21 | 2.21 | 95 | 1014.7 |
| 20260503234552 | 26 | 203 | 4.8 | 12.9 | 0.00 | 2.21 | 2.21 | 95 | 1014.7 |
| 20260503234039 | 26 | 199 | 4.8 | 11.3 | 0.00 | 2.21 | 2.21 | 95 | 1014.7 |
| 20260503233540 | 26 | 182 | 4.8 | 11.3 | 0.00 | 2.21 | 2.21 | 95 | 1014.7 |
| 20260503233048 | 26 | 130 | 3.2 | 12.9 | 0.00 | 2.21 | 2.21 | 94 | 1014.5 |
| 20260503232537 | 26 | 183 | 4.8 | 12.9 | 0.00 | 2.21 | 2.21 | 94 | 1014.4 |
| 20260503232040 | 26 | 205 | 8.0 | 12.9 | 0.00 | 2.21 | 2.21 | 94 | 1014.2 |
| 20260503231550 | 26 | 227 | 6.4 | 16.1 | 0.00 | 2.21 | 2.21 | 94 | 1014.2 |
| 20260503231038 | 26 | 240 | 8.0 | 19.3 | 0.00 | 2.21 | 2.21 | 93 | 1014.2 |
| 20260503230537 | 27 | 230 | 8.0 | 19.3 | 0.00 | 2.21 | 2.21 | 93 | 1014.2 |
| 20260503230050 | 27 | 249 | 6.4 | 16.1 | 0.00 | 2.21 | 2.21 | 93 | 1014.2 |
| 20260503225538 | 27 | 200 | 1.6 | 8.0 | 0.00 | 2.21 | 2.21 | 94 | 1014.2 |
| 20260503225040 | 26 | 235 | 3.2 | 8.0 | 0.00 | 2.21 | 2.21 | 94 | 1014.2 |
| 20260503224549 | 26 | 246 | 1.6 | 11.3 | 0.03 | 2.21 | 2.21 | 95 | 1014.3 |
| 20260503224040 | 26 | 254 | 4.8 | 11.3 | 0.03 | 2.21 | 2.21 | 95 | 1014.3 |
| 20260503223541 | 26 | 166 | 3.2 | 8.0 | 0.20 | 2.21 | 2.21 | 96 | 1014.4 |
| 20260503223050 | 26 | 0 | 3.2 | 8.0 | 0.46 | 2.21 | 2.21 | 96 | 1014.4 |
| 20260503222540 | 26 | 236 | 1.6 | 8.0 | 0.79 | 2.21 | 2.21 | 96 | 1014.2 |
| 20260503222045 | 26 | 207 | 1.6 | 11.3 | 1.45 | 2.21 | 2.21 | 97 | 1014.1 |
| 20260503221553 | 26 | 0 | 1.6 | 11.3 | 2.16 | 2.21 | 2.21 | 97 | 1014.1 |
| 20260503221040 | 26 | 247 | 1.6 | 8.0 | 2.21 | 2.21 | 2.21 | 97 | 1014.1 |
| 20260503220540 | 26 | 174 | 1.6 | 6.4 | 2.21 | 2.21 | 2.21 | 96 | 1014.0 |
| 20260503220052 | 26 | 191 | 0.0 | 8.0 | 2.21 | 2.21 | 2.21 | 96 | 1014.1 |
| 20260503215540 | 26 | 196 | 3.2 | 9.7 | 2.21 | 2.21 | 2.21 | 96 | 1014.4 |
| 20260503215039 | 26 | 182 | 4.8 | 9.7 | 2.21 | 2.21 | 2.21 | 96 | 1014.6 |
| 20260503214549 | 26 | 222 | 4.8 | 9.7 | 2.18 | 2.18 | 2.18 | 95 | 1014.6 |
| 20260503214040 | 26 | 225 | 1.6 | 6.4 | 2.18 | 2.18 | 2.18 | 95 | 1014.5 |
| 20260503213543 | 26 | 0 | 0.0 | 12.9 | 2.01 | 2.01 | 2.01 | 94 | 1014.7 |
| 20260503213052 | 26 | 272 | 3.2 | 12.9 | 1.73 | 1.73 | 1.73 | 93 | 1014.9 |
| 20260503212540 | 27 | 259 | 3.2 | 12.9 | 1.40 | 1.40 | 1.40 | 91 | 1015.0 |
| 20260503212037 | 28 | 275 | 4.8 | 22.5 | 0.66 | 0.66 | 0.66 | 90 | 1015.2 |
| 20260503211549 | 28 | 53 | 1.6 | 22.5 | 0.05 | 0.05 | 0.05 | 89 | 1015.0 |
| 20260503211037 | 28 | 325 | 9.7 | 22.5 | 0.00 | 0.00 | 0.00 | 88 | 1014.9 |
| 20260503210540 | 29 | 248 | 4.8 | 16.1 | 0.00 | 0.00 | 0.00 | 86 | 1014.7 |
| 20260503210047 | 29 | 284 | 6.4 | 16.1 | 0.00 | 0.00 | 0.00 | 87 | 1014.7 |
| 20260503205540 | 29 | 225 | 9.7 | 16.1 | 0.00 | 0.00 | 0.00 | 86 | 1014.9 |
| 20260503205040 | 29 | 247 | 6.4 | 19.3 | 0.00 | 0.00 | 0.00 | 86 | 1014.7 |
| 20260503204550 | 29 | 284 | 9.7 | 19.3 | 0.00 | 0.00 | 0.00 | 86 | 1014.6 |
| 20260503204040 | 29 | 309 | 11.3 | 19.3 | 0.00 | 0.00 | 0.00 | 86 | 1014.9 |
| 20260503203543 | 29 | 264 | 9.7 | 16.1 | 0.00 | 0.00 | 0.00 | 86 | 1015.0 |
| 20260503203047 | 29 | 309 | 4.8 | 17.7 | 0.00 | 0.00 | 0.00 | 86 | 1015.0 |
| 20260503202538 | 29 | 271 | 11.3 | 24.1 | 0.00 | 0.00 | 0.00 | 86 | 1015.0 |
| 20260503202039 | 29 | 295 | 11.3 | 24.1 | 0.00 | 0.00 | 0.00 | 86 | 1015.1 |
| 20260503201548 | 29 | 277 | 9.7 | 20.9 | 0.00 | 0.00 | 0.00 | 86 | 1015.2 |
| 20260503201044 | 29 | 292 | 8.0 | 22.5 | 0.00 | 0.00 | 0.00 | 86 | 1015.2 |
| 20260503200537 | 29 | 288 | 12.9 | 22.5 | 0.00 | 0.00 | 0.00 | 86 | 1015.2 |
| 20260503200056 | 29 | 300 | 6.4 | 24.1 | 0.00 | 0.00 | 0.00 | 86 | 1015.2 |
| 20260503195540 | 29 | 270 | 9.7 | 24.1 | 0.00 | 0.00 | 0.00 | 86 | 1015.3 |
| 20260503195040 | 29 | 311 | 11.3 | 19.3 | 0.00 | 0.00 | 0.00 | 86 | 1015.3 |
| 20260503194549 | 29 | 272 | 11.3 | 19.3 | 0.00 | 0.00 | 0.00 | 86 | 1015.5 |
| 20260503194041 | 29 | 286 | 14.5 | 19.3 | 0.00 | 0.00 | 0.00 | 86 | 1015.6 |
| 20260503193540 | 29 | 276 | 6.4 | 20.9 | 0.00 | 0.00 | 0.00 | 86 | 1015.6 |
| 20260503193057 | 29 | 290 | 12.9 | 20.9 | 0.00 | 0.00 | 0.00 | 86 | 1015.7 |
| 20260503192540 | 29 | 279 | 9.7 | 22.5 | 0.00 | 0.00 | 0.00 | 86 | 1015.8 |
| 20260503192042 | 29 | 296 | 11.3 | 29.0 | 0.00 | 0.00 | 0.00 | 86 | 1015.9 |
| 20260503191549 | 30 | 290 | 14.5 | 29.0 | 0.00 | 0.00 | 0.00 | 86 | 1015.9 |
| 20260503191041 | 30 | 269 | 11.3 | 25.7 | 0.00 | 0.00 | 0.00 | 85 | 1015.9 |
| 20260503190540 | 30 | 296 | 16.1 | 25.7 | 0.00 | 0.00 | 0.00 | 85 | 1016.0 |
| 20260503190052 | 30 | 272 | 11.3 | 27.4 | 0.00 | 0.00 | 0.00 | 85 | 1016.0 |
| 20260503185540 | 30 | 264 | 14.5 | 27.4 | 0.00 | 0.00 | 0.00 | 85 | 1016.1 |
| 20260503185040 | 30 | 290 | 11.3 | 24.1 | 0.00 | 0.00 | 0.00 | 84 | 1016.3 |
| 20260503184544 | 30 | 255 | 12.9 | 22.5 | 0.00 | 0.00 | 0.00 | 83 | 1016.2 |
| 20260503184042 | 30 | 277 | 9.7 | 22.5 | 0.00 | 0.00 | 0.00 | 84 | 1016.2 |
| 20260503183539 | 30 | 275 | 12.9 | 24.1 | 0.00 | 0.00 | 0.00 | 84 | 1016.4 |
| 20260503183107 | 30 | 262 | 11.3 | 25.7 | 0.00 | 0.00 | 0.00 | 85 | 1016.5 |
| 20260503182536 | 30 | 285 | 12.9 | 25.7 | 0.00 | 0.00 | 0.00 | 84 | 1016.5 |
| 20260503182039 | 30 | 277 | 14.5 | 25.7 | 0.00 | 0.00 | 0.00 | 84 | 1016.6 |
| 20260503181614 | 30 | 272 | 8.0 | 25.7 | 0.00 | 0.00 | 0.00 | 85 | 1016.7 |
| 20260503181038 | 29 | 319 | 11.3 | 25.7 | 0.00 | 0.00 | 0.00 | 85 | 1016.8 |
| 20260503180541 | 29 | 286 | 16.1 | 25.7 | 0.00 | 0.00 | 0.00 | 86 | 1016.9 |
| 20260503180052 | 28 | 261 | 9.7 | 20.9 | 0.00 | 0.00 | 0.00 | 86 | 1016.9 |
| 20260503175540 | 29 | 277 | 9.7 | 20.9 | 0.00 | 0.00 | 0.00 | 86 | 1017.0 |
| 20260503175043 | 29 | 257 | 8.0 | 20.9 | 0.00 | 0.00 | 0.00 | 86 | 1017.1 |
| 20260503174553 | 28 | 281 | 11.3 | 20.9 | 0.00 | 0.00 | 0.00 | 86 | 1017.1 |
| 20260503174039 | 28 | 292 | 12.9 | 25.7 | 0.00 | 0.00 | 0.00 | 86 | 1017.2 |
| 20260503173540 | 28 | 300 | 14.5 | 27.4 | 0.00 | 0.00 | 0.00 | 86 | 1017.3 |
| 20260503173054 | 28 | 273 | 14.5 | 27.4 | 0.00 | 0.00 | 0.00 | 86 | 1017.3 |
| 20260503172543 | 28 | 284 | 14.5 | 27.4 | 0.00 | 0.00 | 0.00 | 86 | 1017.4 |
| 20260503172043 | 29 | 286 | 16.1 | 24.1 | 0.00 | 0.00 | 0.00 | 85 | 1017.4 |
| 20260503171555 | 29 | 290 | 12.9 | 22.5 | 0.00 | 0.00 | 0.00 | 85 | 1017.4 |
| 20260503171037 | 29 | 268 | 11.3 | 25.7 | 0.00 | 0.00 | 0.00 | 86 | 1017.5 |
| 20260503170541 | 28 | 312 | 9.7 | 25.7 | 0.00 | 0.00 | 0.00 | 86 | 1017.4 |
| 20260503150540 | 27 | 271 | 17.7 | 29.0 | 0.00 | 0.00 | 0.00 | 89 | 1016.4 |
| 20260503131042 | 26 | 246 | 12.9 | 27.4 | 0.00 | 0.00 | 0.00 | 93 | 1015.5 |
| 20260503130539 | 26 | 239 | 11.3 | 22.5 | 0.00 | 0.00 | 0.00 | 93 | 1015.5 |
| 20260503110538 | 27 | 257 | 6.4 | 16.1 | 0.00 | 0.00 | 0.00 | 95 | 1014.1 |
| 20260503100104 | 27 | 201 | 3.2 | 12.9 | 0.00 | 0.00 | 0.00 | 94 | 1013.5 |
| 20260503081549 | 27 | 0 | 1.6 | 9.7 | 0.00 | 0.00 | 0.00 | 93 | 1014.1 |
| 20260503081037 | 27 | 317 | 4.8 | 11.3 | 0.00 | 0.00 | 0.00 | 93 | 1014.1 |
| 20260503080538 | 27 | 270 | 3.2 | 11.3 | 0.00 | 0.00 | 0.00 | 93 | 1014.1 |
| 20260503072541 | 27 | 327 | 9.7 | 20.9 | 0.00 | 0.00 | 0.00 | 93 | 1014.4 |